contact:dominique.lefevre@mio.osupytheas.fr, maurice.libes@osupytheas.fr, didier.mallarino@osupytheas.fr
Project:EMSO http://www.emso-fr.org/EMSO-France
Depth: 2436.0 m
Title:EMSO Ligure Ouest : Data MII capteur CSTAR
DateTime,Latitude,Longitude,Instrument_Serial,Reference_Counts,Signal_Counts,Corrected_Signal_raw_counts,Calculated_Beam_c_inverse_meters,Internal_thermistor_counts
DateTime,Latitude,Longitude,Instrument_Serial,Reference_Counts,Signal_Counts,Corrected_Signal_raw_counts,Calculated_Beam_c_inverse_meters,Internal_thermistor_counts
2023-04-10T00:02:24,42.805,6.029,CST-1368DR,4327,4706,11550,01.206,551
2023-04-10T00:05:26,42.805,6.029,CST-1368DR,4327,4705,11547,01.207,551
2023-04-10T00:08:27,42.805,6.029,CST-1368DR,4327,4704,11544,01.209,551
2023-04-10T00:11:29,42.805,6.029,CST-1368DR,4327,4706,11549,01.207,551
2023-04-10T00:14:30,42.805,6.029,CST-1368DR,4327,4703,11541,01.210,551
2023-04-10T00:17:32,42.805,6.029,CST-1368DR,4327,4704,11545,01.208,551
2023-04-10T00:20:33,42.805,6.029,CST-1368DR,4327,4703,11543,01.209,551
2023-04-10T00:23:35,42.805,6.029,CST-1368DR,4327,4703,11543,01.209,551
2023-04-10T00:26:37,42.805,6.029,CST-1368DR,4327,4704,11544,01.209,551
2023-04-10T00:29:38,42.805,6.029,CST-1368DR,4327,4705,11547,01.207,551
2023-04-10T00:32:40,42.805,6.029,CST-1368DR,4327,4704,11544,01.209,551
2023-04-10T00:35:41,42.805,6.029,CST-1368DR,4327,4704,11544,01.209,551
2023-04-10T00:38:43,42.805,6.029,CST-1368DR,4327,4704,11545,01.208,551
2023-04-10T00:41:45,42.805,6.029,CST-1368DR,4327,4705,11548,01.207,551
2023-04-10T00:44:46,42.805,6.029,CST-1368DR,4327,4704,11544,01.209,551
2023-04-10T00:47:48,42.805,6.029,CST-1368DR,4327,4702,11540,01.210,551
2023-04-10T00:50:49,42.805,6.029,CST-1368DR,4327,4705,11547,01.207,551
2023-04-10T00:53:51,42.805,6.029,CST-1368DR,4327,4697,11526,01.215,551
2023-04-10T00:56:52,42.805,6.029,CST-1368DR,4327,4702,11539,01.210,551
2023-04-10T00:59:54,42.805,6.029,CST-1368DR,4327,4699,11533,01.212,551
2023-04-10T01:02:56,42.805,6.029,CST-1368DR,4327,4703,11542,01.209,551
2023-04-10T01:05:57,42.805,6.029,CST-1368DR,4327,4699,11533,01.212,551
2023-04-10T01:08:59,42.805,6.029,CST-1368DR,4327,4702,11540,01.210,551
2023-04-10T01:12:00,42.805,6.029,CST-1368DR,4327,4699,11532,01.213,551
2023-04-10T01:15:02,42.805,6.029,CST-1368DR,4327,4702,11539,01.210,551
2023-04-10T01:18:03,42.805,6.029,CST-1368DR,4327,4700,11536,01.211,551
2023-04-10T01:21:05,42.805,6.029,CST-1368DR,4327,4702,11539,01.210,551
2023-04-10T01:24:07,42.805,6.029,CST-1368DR,4327,4700,11534,01.212,551
2023-04-10T01:27:08,42.805,6.029,CST-1368DR,4327,4701,11537,01.211,551
2023-04-10T01:30:10,42.805,6.029,CST-1368DR,4327,4701,11537,01.211,551
2023-04-10T01:33:11,42.805,6.029,CST-1368DR,4327,4700,11535,01.212,551
2023-04-10T01:36:13,42.805,6.029,CST-1368DR,4327,4696,11525,01.215,551
2023-04-10T01:39:15,42.805,6.029,CST-1368DR,4327,4695,11523,01.216,552
2023-04-10T01:42:16,42.805,6.029,CST-1368DR,4327,4697,11527,01.214,551
2023-04-10T01:45:18,42.805,6.029,CST-1368DR,4327,4696,11525,01.215,551
2023-04-10T01:48:19,42.805,6.029,CST-1368DR,4327,4697,11528,01.214,551
2023-04-10T01:51:21,42.805,6.029,CST-1368DR,4327,4695,11521,01.216,551
2023-04-10T01:54:22,42.805,6.029,CST-1368DR,4327,4695,11523,01.216,551
2023-04-10T01:57:24,42.805,6.029,CST-1368DR,4327,4695,11523,01.216,551
2023-04-10T02:00:26,42.805,6.029,CST-1368DR,4327,4695,11523,01.216,551
2023-04-10T02:03:27,42.805,6.029,CST-1368DR,4327,4697,11527,01.214,551
2023-04-10T02:06:29,42.805,6.029,CST-1368DR,4327,4689,11509,01.221,551
2023-04-10T02:09:30,42.805,6.029,CST-1368DR,4327,4697,11528,01.214,552
2023-04-10T02:12:32,42.805,6.029,CST-1368DR,4327,4700,11536,01.211,551
2023-04-10T02:15:33,42.805,6.029,CST-1368DR,4327,4698,11529,01.214,551
2023-04-10T02:18:35,42.805,6.029,CST-1368DR,4327,4700,11534,01.212,551
2023-04-10T02:21:37,42.805,6.029,CST-1368DR,4327,4699,11532,01.213,551
2023-04-10T02:24:38,42.805,6.029,CST-1368DR,4327,4702,11540,01.210,551
2023-04-10T02:27:40,42.805,6.029,CST-1368DR,4327,4701,11537,01.211,551
2023-04-10T02:30:41,42.805,6.029,CST-1368DR,4327,4698,11529,01.214,551
2023-04-10T02:33:43,42.805,6.029,CST-1368DR,4327,4703,11543,01.209,551
2023-04-10T02:36:45,42.805,6.029,CST-1368DR,4327,4704,11545,01.208,551
2023-04-10T02:39:46,42.805,6.029,CST-1368DR,4327,4706,11550,01.206,551
2023-04-10T02:42:48,42.805,6.029,CST-1368DR,4327,4707,11553,01.205,551
2023-04-10T02:45:49,42.805,6.029,CST-1368DR,4327,4705,11547,01.207,551
2023-04-10T02:48:51,42.805,6.029,CST-1368DR,4327,4705,11547,01.207,551
2023-04-10T02:51:52,42.805,6.029,CST-1368DR,4327,4704,11545,01.208,552
2023-04-10T02:54:54,42.805,6.029,CST-1368DR,4327,4701,11538,01.211,551
2023-04-10T02:57:56,42.805,6.029,CST-1368DR,4327,4708,11555,01.205,551
2023-04-10T03:00:57,42.805,6.029,CST-1368DR,4327,4704,11544,01.209,551
2023-04-10T03:03:59,42.805,6.029,CST-1368DR,4327,4706,11549,01.207,551
2023-04-10T03:07:00,42.805,6.029,CST-1368DR,4327,4703,11543,01.209,551
2023-04-10T03:10:02,42.805,6.029,CST-1368DR,4327,4704,11544,01.209,551
2023-04-10T03:13:03,42.805,6.029,CST-1368DR,4327,4704,11544,01.209,552
2023-04-10T03:16:05,42.805,6.029,CST-1368DR,4327,4707,11552,01.206,551
2023-04-10T03:19:07,42.805,6.029,CST-1368DR,4327,4703,11541,01.210,552
2023-04-10T03:22:08,42.805,6.029,CST-1368DR,4327,4702,11540,01.210,552
2023-04-10T03:25:10,42.805,6.029,CST-1368DR,4327,4703,11542,01.209,551
2023-04-10T03:28:11,42.805,6.029,CST-1368DR,4327,4700,11534,01.212,552
2023-04-10T03:31:13,42.805,6.029,CST-1368DR,4327,4703,11542,01.209,551
2023-04-10T03:34:15,42.805,6.029,CST-1368DR,4327,4703,11542,01.209,551
2023-04-10T03:37:16,42.805,6.029,CST-1368DR,4327,4703,11542,01.209,551
2023-04-10T03:40:18,42.805,6.029,CST-1368DR,4327,4703,11542,01.209,551
2023-04-10T03:43:19,42.805,6.029,CST-1368DR,4327,4701,11536,01.211,551
2023-04-10T03:46:21,42.805,6.029,CST-1368DR,4327,4701,11536,01.211,551
2023-04-10T03:49:22,42.805,6.029,CST-1368DR,4327,4700,11536,01.211,551
2023-04-10T03:52:24,42.805,6.029,CST-1368DR,4327,4702,11539,01.210,551
2023-04-10T03:55:26,42.805,6.029,CST-1368DR,4327,4699,11533,01.212,551
2023-04-10T03:58:27,42.805,6.029,CST-1368DR,4327,4700,11536,01.211,551
2023-04-10T04:01:29,42.805,6.029,CST-1368DR,4327,4698,11531,01.213,551
2023-04-10T04:04:30,42.805,6.029,CST-1368DR,4327,4701,11536,01.211,551
2023-04-10T04:07:32,42.805,6.029,CST-1368DR,4327,4702,11539,01.210,551
2023-04-10T04:10:33,42.805,6.029,CST-1368DR,4327,4701,11538,01.211,551
2023-04-10T04:13:35,42.805,6.029,CST-1368DR,4327,4699,11532,01.213,551
2023-04-10T04:16:37,42.805,6.029,CST-1368DR,4327,4700,11535,01.212,551
2023-04-10T04:19:38,42.805,6.029,CST-1368DR,4327,4700,11534,01.212,551
2023-04-10T04:22:40,42.805,6.029,CST-1368DR,4327,4701,11537,01.211,551
2023-04-10T04:25:41,42.805,6.029,CST-1368DR,4327,4700,11536,01.211,551
2023-04-10T04:28:43,42.805,6.029,CST-1368DR,4327,4702,11539,01.210,551
2023-04-10T04:31:45,42.805,6.029,CST-1368DR,4327,4698,11531,01.213,551
2023-04-10T04:34:46,42.805,6.029,CST-1368DR,4327,4699,11533,01.212,551
2023-04-10T04:37:48,42.805,6.029,CST-1368DR,4327,4700,11534,01.212,551
2023-04-10T04:40:49,42.805,6.029,CST-1368DR,4327,4697,11526,01.215,551
2023-04-10T04:43:51,42.805,6.029,CST-1368DR,4327,4699,11532,01.213,551
2023-04-10T04:46:52,42.805,6.029,CST-1368DR,4327,4699,11532,01.213,551
2023-04-10T04:49:54,42.805,6.029,CST-1368DR,4327,4699,11532,01.213,551
2023-04-10T04:52:56,42.805,6.029,CST-1368DR,4327,4695,11521,01.216,551
2023-04-10T04:55:57,42.805,6.029,CST-1368DR,4327,4699,11531,01.213,551
2023-04-10T04:58:59,42.805,6.029,CST-1368DR,4327,4700,11534,01.212,551
2023-04-10T05:02:00,42.805,6.029,CST-1368DR,4327,4704,11544,01.209,551
2023-04-10T05:05:02,42.805,6.029,CST-1368DR,4327,4701,11536,01.211,551
2023-04-10T05:08:03,42.805,6.029,CST-1368DR,4327,4700,11536,01.211,551
2023-04-10T05:11:05,42.805,6.029,CST-1368DR,4327,4699,11532,01.213,551
2023-04-10T05:14:07,42.805,6.029,CST-1368DR,4327,4701,11536,01.211,552
2023-04-10T05:17:08,42.805,6.029,CST-1368DR,4327,4701,11536,01.211,551
2023-04-10T05:20:10,42.805,6.029,CST-1368DR,4327,4701,11537,01.211,551
2023-04-10T05:23:11,42.805,6.029,CST-1368DR,4327,4700,11534,01.212,551
2023-04-10T05:26:13,42.805,6.029,CST-1368DR,4327,4701,11536,01.211,551
2023-04-10T05:29:15,42.805,6.029,CST-1368DR,4327,4701,11538,01.211,551
2023-04-10T05:32:16,42.805,6.029,CST-1368DR,4327,4702,11539,01.210,551
2023-04-10T05:35:18,42.805,6.029,CST-1368DR,4327,4702,11539,01.210,551
2023-04-10T05:38:19,42.805,6.029,CST-1368DR,4327,4703,11541,01.210,551
2023-04-10T05:41:21,42.805,6.029,CST-1368DR,4327,4702,11540,01.210,551
2023-04-10T05:44:22,42.805,6.029,CST-1368DR,4326,4702,11543,01.209,551
2023-04-10T05:47:24,42.805,6.029,CST-1368DR,4327,4695,11522,01.216,551
2023-04-10T05:50:26,42.805,6.029,CST-1368DR,4327,4701,11538,01.211,551
2023-04-10T05:53:27,42.805,6.029,CST-1368DR,4327,4703,11543,01.209,551
2023-04-10T05:56:29,42.805,6.029,CST-1368DR,4327,4703,11542,01.209,551
2023-04-10T05:59:30,42.805,6.029,CST-1368DR,4327,4703,11542,01.209,551
2023-04-10T06:02:32,42.805,6.029,CST-1368DR,4327,4703,11542,01.209,551
2023-04-10T06:05:33,42.805,6.029,CST-1368DR,4327,4705,11546,01.208,551
2023-04-10T06:08:35,42.805,6.029,CST-1368DR,4327,4703,11542,01.209,551
2023-04-10T06:11:37,42.805,6.029,CST-1368DR,4327,4702,11539,01.210,551
2023-04-10T06:14:38,42.805,6.029,CST-1368DR,4327,4702,11540,01.210,551
2023-04-10T06:17:40,42.805,6.029,CST-1368DR,4327,4703,11543,01.209,551
2023-04-10T06:20:41,42.805,6.029,CST-1368DR,4327,4705,11547,01.207,551
2023-04-10T06:23:43,42.805,6.029,CST-1368DR,4327,4705,11546,01.208,551
2023-04-10T06:26:44,42.805,6.029,CST-1368DR,4327,4705,11546,01.208,551
2023-04-10T06:29:46,42.805,6.029,CST-1368DR,4327,4704,11544,01.209,551
2023-04-10T06:32:49,42.805,6.029,CST-1368DR,4327,4704,11545,01.208,551
2023-04-10T06:35:50,42.805,6.029,CST-1368DR,4326,4703,11545,01.208,551
2023-04-10T06:38:52,42.805,6.029,CST-1368DR,4327,4704,11544,01.209,551
2023-04-10T06:41:54,42.805,6.029,CST-1368DR,4327,4703,11541,01.210,551
2023-04-10T06:44:55,42.805,6.029,CST-1368DR,4327,4706,11548,01.207,551
2023-04-10T06:47:57,42.805,6.029,CST-1368DR,4326,4704,11546,01.208,551
2023-04-10T06:50:58,42.805,6.029,CST-1368DR,4327,4706,11548,01.207,551
2023-04-10T06:54:00,42.805,6.029,CST-1368DR,4327,4703,11542,01.209,551
2023-04-10T06:57:01,42.805,6.029,CST-1368DR,4327,4704,11545,01.208,551
2023-04-10T07:00:03,42.805,6.029,CST-1368DR,4327,4704,11544,01.209,551
2023-04-10T07:03:05,42.805,6.029,CST-1368DR,4327,4702,11540,01.210,551
2023-04-10T07:06:06,42.805,6.029,CST-1368DR,4327,4704,11544,01.209,551
2023-04-10T07:09:08,42.805,6.029,CST-1368DR,4327,4704,11544,01.209,551
2023-04-10T07:12:09,42.805,6.029,CST-1368DR,4327,4702,11539,01.210,551
2023-04-10T07:15:11,42.805,6.029,CST-1368DR,4327,4704,11544,01.209,551
2023-04-10T07:18:13,42.805,6.029,CST-1368DR,4327,4702,11540,01.210,551
2023-04-10T07:21:14,42.805,6.029,CST-1368DR,4326,4703,11544,01.209,551
2023-04-10T07:24:16,42.805,6.029,CST-1368DR,4327,4703,11543,01.209,551
2023-04-10T07:27:17,42.805,6.029,CST-1368DR,4326,4703,11544,01.209,551
2023-04-10T07:30:19,42.805,6.029,CST-1368DR,4327,4705,11547,01.207,551
2023-04-10T07:33:20,42.805,6.029,CST-1368DR,4327,4705,11547,01.207,551
2023-04-10T07:36:22,42.805,6.029,CST-1368DR,4326,4704,11547,01.207,551
2023-04-10T07:39:24,42.805,6.029,CST-1368DR,4326,4705,11550,01.206,551
2023-04-10T07:42:25,42.805,6.029,CST-1368DR,4326,4703,11544,01.209,551
2023-04-10T07:45:27,42.805,6.029,CST-1368DR,4326,4705,11550,01.206,551
2023-04-10T07:48:28,42.805,6.029,CST-1368DR,4326,4703,11545,01.208,551
2023-04-10T07:51:30,42.805,6.029,CST-1368DR,4326,4703,11544,01.209,551
2023-04-10T07:54:31,42.805,6.029,CST-1368DR,4327,4696,11526,01.215,551
2023-04-10T07:57:33,42.805,6.029,CST-1368DR,4326,4700,11536,01.211,551
2023-04-10T08:00:35,42.805,6.029,CST-1368DR,4327,4701,11536,01.211,551
2023-04-10T08:03:36,42.805,6.029,CST-1368DR,4327,4702,11540,01.210,551
2023-04-10T08:06:38,42.805,6.029,CST-1368DR,4326,4704,11546,01.208,551
2023-04-10T08:09:39,42.805,6.029,CST-1368DR,4326,4702,11543,01.209,551
2023-04-10T08:12:41,42.805,6.029,CST-1368DR,4327,4703,11541,01.210,551
2023-04-10T08:15:43,42.805,6.029,CST-1368DR,4327,4702,11539,01.210,551
2023-04-10T08:18:44,42.805,6.029,CST-1368DR,4327,4705,11547,01.207,551
2023-04-10T08:21:46,42.805,6.029,CST-1368DR,4327,4701,11538,01.211,551
2023-04-10T08:24:47,42.805,6.029,CST-1368DR,4327,4704,11544,01.209,551
2023-04-10T08:27:49,42.805,6.029,CST-1368DR,4327,4702,11540,01.210,551
2023-04-10T08:30:51,42.805,6.029,CST-1368DR,4327,4706,11550,01.206,551
2023-04-10T08:33:53,42.805,6.029,CST-1368DR,4327,4706,11548,01.207,551
2023-04-10T08:36:55,42.805,6.029,CST-1368DR,4326,4705,11549,01.207,551
2023-04-10T08:39:56,42.805,6.029,CST-1368DR,4327,4707,11552,01.206,551
2023-04-10T08:42:58,42.805,6.029,CST-1368DR,4326,4706,11553,01.205,551
2023-04-10T08:45:59,42.805,6.029,CST-1368DR,4327,4708,11554,01.205,551
2023-04-10T08:49:01,42.805,6.029,CST-1368DR,4326,4708,11557,01.204,551
2023-04-10T08:52:02,42.805,6.029,CST-1368DR,4326,4709,11558,01.204,551
2023-04-10T08:55:04,42.805,6.029,CST-1368DR,4326,4700,11537,01.211,551
2023-04-10T08:58:06,42.805,6.029,CST-1368DR,4327,4712,11563,01.202,551
2023-04-10T09:01:07,42.805,6.029,CST-1368DR,4327,4712,11563,01.202,551
2023-04-10T09:04:09,42.805,6.029,CST-1368DR,4326,4711,11563,01.202,551
2023-04-10T09:07:10,42.805,6.029,CST-1368DR,4326,4713,11570,01.200,551
2023-04-10T09:10:12,42.805,6.029,CST-1368DR,4326,4714,11572,01.199,551
2023-04-10T09:13:13,42.805,6.029,CST-1368DR,4326,4714,11571,01.199,551
2023-04-10T09:16:15,42.805,6.029,CST-1368DR,4326,4713,11568,01.200,551
2023-04-10T09:19:17,42.805,6.029,CST-1368DR,4326,4711,11565,01.201,551
2023-04-10T09:22:18,42.805,6.029,CST-1368DR,4326,4713,11569,01.200,551
2023-04-10T09:25:20,42.805,6.029,CST-1368DR,4326,4712,11566,01.201,551
2023-04-10T09:28:21,42.805,6.029,CST-1368DR,4326,4712,11567,01.201,551
2023-04-10T09:31:23,42.805,6.029,CST-1368DR,4326,4713,11569,01.200,551
2023-04-10T09:34:25,42.805,6.029,CST-1368DR,4326,4713,11568,01.200,551
2023-04-10T09:37:26,42.805,6.029,CST-1368DR,4326,4712,11567,01.201,551
2023-04-10T09:40:28,42.805,6.029,CST-1368DR,4326,4712,11567,01.201,551
2023-04-10T09:43:29,42.805,6.029,CST-1368DR,4326,4714,11572,01.199,551
2023-04-10T09:46:31,42.805,6.029,CST-1368DR,4326,4714,11571,01.199,551
2023-04-10T09:49:32,42.805,6.029,CST-1368DR,4326,4716,11577,01.197,551
2023-04-10T09:52:34,42.805,6.029,CST-1368DR,4326,4713,11568,01.200,551
2023-04-10T09:55:36,42.805,6.029,CST-1368DR,4326,4714,11571,01.199,551
2023-04-10T09:58:37,42.805,6.029,CST-1368DR,4326,4715,11574,01.198,551
2023-04-10T10:01:39,42.805,6.029,CST-1368DR,4326,4709,11558,01.204,551
2023-04-10T10:04:40,42.805,6.029,CST-1368DR,4326,4715,11574,01.198,551
2023-04-10T10:07:42,42.805,6.029,CST-1368DR,4326,4714,11571,01.199,551
2023-04-10T10:10:44,42.805,6.029,CST-1368DR,4326,4714,11572,01.199,551
2023-04-10T10:13:45,42.805,6.029,CST-1368DR,4326,4713,11569,01.200,551
2023-04-10T10:16:47,42.805,6.029,CST-1368DR,4326,4713,11570,01.200,551
2023-04-10T10:19:48,42.805,6.029,CST-1368DR,4326,4715,11573,01.198,551
2023-04-10T10:22:50,42.805,6.029,CST-1368DR,4326,4713,11570,01.200,551
2023-04-10T10:25:51,42.805,6.029,CST-1368DR,4326,4715,11573,01.198,551
2023-04-10T10:28:53,42.805,6.029,CST-1368DR,4326,4715,11573,01.198,551
2023-04-10T10:31:55,42.805,6.029,CST-1368DR,4326,4715,11573,01.198,551
2023-04-10T10:34:56,42.805,6.029,CST-1368DR,4326,4714,11572,01.199,551
2023-04-10T10:37:58,42.805,6.029,CST-1368DR,4326,4712,11566,01.201,551
2023-04-10T10:40:59,42.805,6.029,CST-1368DR,4326,4712,11567,01.201,551
2023-04-10T10:44:01,42.805,6.029,CST-1368DR,4326,4713,11569,01.200,551
2023-04-10T10:47:02,42.805,6.029,CST-1368DR,4326,4715,11574,01.198,551
2023-04-10T10:50:04,42.805,6.029,CST-1368DR,4326,4718,11582,01.195,551
2023-04-10T10:53:06,42.805,6.029,CST-1368DR,4326,4716,11577,01.197,551
2023-04-10T10:56:07,42.805,6.029,CST-1368DR,4326,4715,11574,01.198,551
2023-04-10T10:59:09,42.805,6.029,CST-1368DR,4326,4717,11579,01.196,551
2023-04-10T11:02:10,42.805,6.029,CST-1368DR,4326,4716,11576,01.197,551
2023-04-10T11:05:12,42.805,6.029,CST-1368DR,4326,4717,11580,01.196,551
2023-04-10T11:08:13,42.805,6.029,CST-1368DR,4326,4718,11581,01.196,551
2023-04-10T11:11:15,42.805,6.029,CST-1368DR,4326,4715,11574,01.198,551
2023-04-10T11:14:17,42.805,6.029,CST-1368DR,4326,4713,11569,01.200,551
2023-04-10T11:17:18,42.805,6.029,CST-1368DR,4326,4713,11569,01.200,551
2023-04-10T11:20:20,42.805,6.029,CST-1368DR,4326,4712,11567,01.201,551
2023-04-10T11:23:21,42.805,6.029,CST-1368DR,4326,4711,11565,01.201,551
2023-04-10T11:26:23,42.805,6.029,CST-1368DR,4326,4713,11568,01.200,552
2023-04-10T11:29:25,42.805,6.029,CST-1368DR,4326,4713,11569,01.200,551
2023-04-10T11:32:26,42.805,6.029,CST-1368DR,4326,4713,11569,01.200,551
2023-04-10T11:35:28,42.805,6.029,CST-1368DR,4326,4714,11571,01.199,551
2023-04-10T11:38:29,42.805,6.029,CST-1368DR,4326,4714,11572,01.199,551
2023-04-10T11:41:31,42.805,6.029,CST-1368DR,4326,4717,11579,01.196,551
2023-04-10T11:44:32,42.805,6.029,CST-1368DR,4326,4714,11571,01.199,551
2023-04-10T11:47:34,42.805,6.029,CST-1368DR,4326,4712,11566,01.201,551
2023-04-10T11:50:36,42.805,6.029,CST-1368DR,4326,4716,11576,01.197,551
2023-04-10T11:53:37,42.805,6.029,CST-1368DR,4326,4717,11579,01.196,551
2023-04-10T11:56:39,42.805,6.029,CST-1368DR,4326,4712,11566,01.201,551
2023-04-10T11:59:40,42.805,6.029,CST-1368DR,4326,4715,11574,01.198,551
2023-04-10T12:02:42,42.805,6.029,CST-1368DR,4326,4716,11576,01.197,551
2023-04-10T12:05:44,42.805,6.029,CST-1368DR,4326,4715,11574,01.198,551
2023-04-10T12:08:45,42.805,6.029,CST-1368DR,4326,4714,11572,01.199,551
2023-04-10T12:11:47,42.805,6.029,CST-1368DR,4326,4718,11582,01.195,551
2023-04-10T12:14:48,42.805,6.029,CST-1368DR,4326,4715,11574,01.198,551
2023-04-10T12:17:50,42.805,6.029,CST-1368DR,4326,4713,11569,01.200,551
2023-04-10T12:20:51,42.805,6.029,CST-1368DR,4326,4713,11569,01.200,551
2023-04-10T12:23:53,42.805,6.029,CST-1368DR,4326,4714,11571,01.199,551
2023-04-10T12:26:55,42.805,6.029,CST-1368DR,4326,4714,11571,01.199,551
2023-04-10T12:29:56,42.805,6.029,CST-1368DR,4326,4712,11568,01.200,551
2023-04-10T12:32:58,42.805,6.029,CST-1368DR,4326,4711,11564,01.202,551
2023-04-10T12:36:00,42.805,6.029,CST-1368DR,4326,4717,11579,01.196,551
2023-04-10T12:39:01,42.805,6.029,CST-1368DR,4326,4715,11574,01.198,551
2023-04-10T12:42:03,42.805,6.029,CST-1368DR,4326,4713,11569,01.200,551
2023-04-10T12:45:04,42.805,6.029,CST-1368DR,4326,4715,11574,01.198,551
2023-04-10T12:48:06,42.805,6.029,CST-1368DR,4326,4712,11566,01.201,551
2023-04-10T12:51:08,42.805,6.029,CST-1368DR,4326,4713,11569,01.200,551
2023-04-10T12:54:09,42.805,6.029,CST-1368DR,4326,4715,11574,01.198,551
2023-04-10T12:57:11,42.805,6.029,CST-1368DR,4326,4715,11574,01.198,551
2023-04-10T13:00:12,42.805,6.029,CST-1368DR,4326,4714,11572,01.199,551
2023-04-10T13:03:14,42.805,6.029,CST-1368DR,4326,4716,11576,01.197,551
2023-04-10T13:06:15,42.805,6.029,CST-1368DR,4326,4714,11572,01.199,551
2023-04-10T13:09:17,42.805,6.029,CST-1368DR,4326,4715,11574,01.198,551
2023-04-10T13:12:19,42.805,6.029,CST-1368DR,4326,4714,11571,01.199,551
2023-04-10T13:15:20,42.805,6.029,CST-1368DR,4326,4713,11570,01.200,551
2023-04-10T13:18:22,42.805,6.029,CST-1368DR,4326,4714,11572,01.199,551
2023-04-10T13:21:23,42.805,6.029,CST-1368DR,4326,4715,11574,01.198,551
2023-04-10T13:24:25,42.805,6.029,CST-1368DR,4326,4717,11578,01.197,551
2023-04-10T13:27:27,42.805,6.029,CST-1368DR,4326,4716,11576,01.197,551
2023-04-10T13:30:28,42.805,6.029,CST-1368DR,4326,4716,11577,01.197,551
2023-04-10T13:33:30,42.805,6.029,CST-1368DR,4326,4717,11578,01.197,552
2023-04-10T13:36:31,42.805,6.029,CST-1368DR,4326,4716,11577,01.197,551
2023-04-10T13:39:33,42.805,6.029,CST-1368DR,4326,4715,11574,01.198,551
2023-04-10T13:42:34,42.805,6.029,CST-1368DR,4326,4716,11576,01.197,551
2023-04-10T13:45:36,42.805,6.029,CST-1368DR,4326,4716,11576,01.197,552
2023-04-10T13:48:38,42.805,6.029,CST-1368DR,4326,4716,11577,01.197,551
2023-04-10T13:51:39,42.805,6.029,CST-1368DR,4326,4714,11571,01.199,551
2023-04-10T13:54:41,42.805,6.029,CST-1368DR,4326,4713,11569,01.200,551
2023-04-10T13:57:42,42.805,6.029,CST-1368DR,4326,4710,11561,01.203,551
2023-04-10T14:00:44,42.805,6.029,CST-1368DR,4326,4713,11569,01.200,551
2023-04-10T14:03:46,42.805,6.029,CST-1368DR,4326,4709,11559,01.203,551
2023-04-10T14:06:47,42.805,6.029,CST-1368DR,4326,4714,11571,01.199,552
2023-04-10T14:09:49,42.805,6.029,CST-1368DR,4326,4711,11565,01.201,551
2023-04-10T14:12:50,42.805,6.029,CST-1368DR,4326,4713,11569,01.200,551
2023-04-10T14:15:52,42.805,6.029,CST-1368DR,4326,4713,11569,01.200,551
2023-04-10T14:18:53,42.805,6.029,CST-1368DR,4326,4713,11568,01.200,551
2023-04-10T14:21:55,42.805,6.029,CST-1368DR,4326,4708,11557,01.204,551
2023-04-10T14:24:57,42.805,6.029,CST-1368DR,4326,4710,11562,01.202,551
2023-04-10T14:27:58,42.805,6.029,CST-1368DR,4326,4706,11552,01.206,551
2023-04-10T14:31:01,42.805,6.029,CST-1368DR,4326,4699,11534,01.212,551
2023-04-10T14:34:02,42.805,6.029,CST-1368DR,4326,4702,11541,01.210,551
2023-04-10T14:37:04,42.805,6.029,CST-1368DR,4326,4702,11542,01.209,551
2023-04-10T14:40:05,42.805,6.029,CST-1368DR,4326,4683,11495,01.226,551
2023-04-10T14:43:07,42.805,6.029,CST-1368DR,4326,4694,11522,01.216,551
2023-04-10T14:46:09,42.805,6.029,CST-1368DR,4326,4697,11530,01.213,551
2023-04-10T14:49:10,42.805,6.029,CST-1368DR,4326,4698,11531,01.213,551
2023-04-10T14:52:12,42.805,6.029,CST-1368DR,4326,4688,11509,01.221,551
2023-04-10T14:55:13,42.805,6.029,CST-1368DR,4326,4695,11526,01.215,551
2023-04-10T14:58:15,42.805,6.029,CST-1368DR,4326,4699,11534,01.212,551
2023-04-10T15:01:17,42.805,6.029,CST-1368DR,4326,4700,11536,01.211,551
2023-04-10T15:04:18,42.805,6.029,CST-1368DR,4326,4695,11525,01.215,551
2023-04-10T15:07:20,42.805,6.029,CST-1368DR,4326,4696,11528,01.214,551
2023-04-10T15:10:21,42.805,6.029,CST-1368DR,4326,4699,11536,01.211,551
2023-04-10T15:13:23,42.805,6.029,CST-1368DR,4326,4701,11541,01.210,551
2023-04-10T15:16:24,42.805,6.029,CST-1368DR,4326,4700,11537,01.211,551
2023-04-10T15:19:26,42.805,6.029,CST-1368DR,4326,4699,11535,01.212,551
2023-04-10T15:22:28,42.805,6.029,CST-1368DR,4326,4700,11538,01.211,551
2023-04-10T15:25:29,42.805,6.029,CST-1368DR,4326,4701,11540,01.210,551
2023-04-10T15:28:31,42.805,6.029,CST-1368DR,4326,4704,11546,01.208,551
2023-04-10T15:31:32,42.805,6.029,CST-1368DR,4326,4703,11545,01.208,551
2023-04-10T15:34:34,42.805,6.029,CST-1368DR,4326,4705,11550,01.206,551
2023-04-10T15:37:35,42.805,6.029,CST-1368DR,4326,4705,11550,01.206,551
2023-04-10T15:40:37,42.805,6.029,CST-1368DR,4326,4705,11550,01.206,551
2023-04-10T15:43:39,42.805,6.029,CST-1368DR,4326,4705,11549,01.207,551
2023-04-10T15:46:40,42.805,6.029,CST-1368DR,4326,4704,11546,01.208,551
2023-04-10T15:49:42,42.805,6.029,CST-1368DR,4326,4699,11534,01.212,551
2023-04-10T15:52:43,42.805,6.029,CST-1368DR,4326,4703,11545,01.208,551
2023-04-10T15:55:45,42.805,6.029,CST-1368DR,4326,4703,11544,01.209,551
2023-04-10T15:58:47,42.805,6.029,CST-1368DR,4326,4703,11545,01.208,551
2023-04-10T16:01:48,42.805,6.029,CST-1368DR,4326,4701,11540,01.210,551
2023-04-10T16:04:50,42.805,6.029,CST-1368DR,4326,4710,11561,01.203,551
2023-04-10T16:07:51,42.805,6.029,CST-1368DR,4326,4707,11555,01.205,551
2023-04-10T16:10:53,42.805,6.029,CST-1368DR,4326,4708,11557,01.204,551
2023-04-10T16:13:54,42.805,6.029,CST-1368DR,4326,4708,11557,01.204,551
2023-04-10T16:16:56,42.805,6.029,CST-1368DR,4326,4710,11561,01.203,551
2023-04-10T16:19:58,42.805,6.029,CST-1368DR,4326,4711,11565,01.201,551
2023-04-10T16:22:59,42.805,6.029,CST-1368DR,4326,4703,11544,01.209,551
2023-04-10T16:26:01,42.805,6.029,CST-1368DR,4326,4711,11565,01.201,552
2023-04-10T16:29:02,42.805,6.029,CST-1368DR,4326,4710,11561,01.203,551
2023-04-10T16:32:04,42.805,6.029,CST-1368DR,4326,4708,11557,01.204,551
2023-04-10T16:35:05,42.805,6.029,CST-1368DR,4326,4711,11564,01.202,551
2023-04-10T16:38:07,42.805,6.029,CST-1368DR,4326,4712,11566,01.201,551